Wind_Speed
55 54 53 52 51 51 51 52 53 55 56 57 57 57 57 56 56 56 55 55 54 54 54 53 53 53 53 53 53 54 54 52 51 49 46 42 37 39 44 45 42 41 39 35 33 35 38 39 38 39 39 40 39 37 35 35 37 39 41 44 46 49 51 51 49 48 45 42 41 39 37 37 38 38 37 37 40 41 41 43 45 44 43 43 41
56 55 54 53 52 51 51 52 53 53 55 57 58 58 57 57 57 56 56 56 55 55 54 54 54 54 53 52 53 54 53 51 50 49 46 41 38 38 43 46 43 42 41 38 35 36 38 40 40 40 40 40 39 36 34 34 34 36 38 40 40 41 44 45 43 44 43 42 41 39 37 38 38 37 35 35 38 39 38 40 42 41 42 43 41
57 56 55 54 53 52 52 52 52 53 54 55 57 58 58 57 57 57 56 56 56 55 54 54 54 54 53 52 53 54 52 50 49 48 45 41 38 39 43 44 42 40 40 40 39 39 40 40 41 41 40 41 40 37 35 35 36 38 40 39 38 38 40 41 42 42 41 41 40 39 38 38 38 37 34 33 35 37 36 37 41 42 43 41 37
58 57 56 55 54 53 52 52 52 52 53 54 55 57 57 57 57 57 56 56 56 55 54 54 54 54 53 52 52 53 52 49 48 46 43 39 39 41 43 43 41 41 40 41 42 42 41 40 42 43 42 42 43 41 39 38 37 40 42 41 41 40 40 41 42 41 40 40 41 39 38 38 38 38 36 32 33 35 34 36 41 42 39 35 32
58 57 57 56 55 54 53 53 53 53 53 54 54 56 57 57 57 57 56 56 56 56 55 55 54 54 53 51 51 52 51 48 47 45 40 38 41 43 45 44 43 44 43 44 45 45 44 43 44 45 43 43 45 45 42 39 38 41 43 44 44 43 41 41 42 43 42 41 42 41 39 39 38 39 37 33 31 33 33 35 39 38 34 31 29
58 58 57 57 56 55 55 54 54 54 54 54 54 55 56 57 57 57 57 56 56 56 55 55 54 54 53 51 50 51 50 47 45 45 39 38 43 45 46 46 45 46 45 46 47 47 48 47 48 48 45 44 46 46 45 41 40 43 45 44 44 43 42 41 42 44 45 43 43 43 41 38 37 39 38 33 30 33 33 33 36 37 33 31 29
59 58 58 57 57 56 56 55 55 54 54 54 55 55 56 56 57 57 57 57 57 57 56 55 54 54 53 51 50 50 50 46 42 43 38 39 46 47 49 49 47 46 46 46 47 48 50 51 51 50 48 46 46 45 45 42 40 43 44 43 43 43 41 41 42 44 45 45 44 43 41 38 37 38 37 33 30 33 33 31 34 37 35 32 30
61 60 59 58 58 57 57 56 56 55 55 55 55 55 56 56 57 57 57 58 57 57 57 56 55 54 53 51 50 49 49 46 41 40 38 42 49 50 52 52 50 50 49 49 48 48 49 51 51 51 49 47 44 43 44 42 40 42 43 42 43 44 42 42 43 45 46 45 44 43 41 38 37 37 36 34 32 34 34 33 35 37 36 34 33
62 61 59 59 58 58 58 57 56 56 56 56 56 56 56 56 56 57 57 58 58 58 58 57 57 55 53 51 50 48 48 46 41 39 38 44 53 53 55 56 54 53 54 53 52 51 50 49 49 51 50 46 43 42 43 44 42 41 41 42 43 45 45 46 46 47 47 46 44 43 41 39 38 38 38 36 33 34 35 35 36 36 36 36 36
63 61 60 59 58 58 58 57 57 57 56 56 56 56 57 57 57 57 57 58 58 58 58 57 57 56 54 52 51 49 47 46 42 38 38 45 55 56 56 58 56 55 56 57 56 55 54 52 50 51 50 47 45 45 47 49 49 46 43 42 44 46 49 51 50 49 49 48 45 43 42 41 39 39 39 37 35 35 37 37 37 37 36 37 36
63 62 60 59 59 59 59 58 58 58 58 58 57 57 58 58 58 58 58 58 58 58 58 58 57 56 55 53 51 49 47 45 43 39 38 43 56 59 59 60 59 57 57 59 59 59 58 56 54 53 51 50 50 51 53 54 53 51 49 46 46 47 49 53 54 52 51 50 46 45 45 44 42 40 40 39 38 37 37 37 38 38 38 37 37
63 62 61 60 60 59 60 60 60 59 59 59 59 59 59 59 59 59 59 59 59 59 59 58 58 57 56 54 52 51 48 46 44 41 38 42 54 62 62 63 63 60 59 60 61 61 60 57 56 56 54 53 56 58 59 58 56 57 56 54 51 48 47 52 55 54 54 52 49 48 48 46 44 43 41 41 41 40 40 40 39 39 39 38 38
63 63 62 62 61 61 61 61 61 61 61 60 60 60 59 60 60 60 61 61 61 60 60 59 59 58 57 56 54 52 50 48 46 44 41 41 51 62 64 64 65 64 62 63 63 63 61 58 57 58 57 56 58 60 61 60 59 59 60 58 54 48 47 52 56 57 57 55 52 50 49 48 48 46 44 43 43 43 43 43 42 41 39 39 40
64 64 63 63 63 63 63 63 62 62 62 61 61 61 61 61 61 62 62 62 62 62 61 61 60 60 59 57 56 54 52 50 48 47 44 42 48 60 66 66 67 67 65 65 65 65 64 60 59 60 60 59 59 60 61 61 60 59 60 59 57 53 52 54 57 59 60 58 55 53 51 51 51 51 50 48 47 47 47 45 45 44 42 41 43
65 65 65 64 64 64 63 64 64 64 63 63 63 63 63 63 63 63 64 64 63 63 63 63 62 61 60 59 58 56 54 52 50 48 47 45 47 58 68 68 67 68 68 67 67 67 66 64 62 62 62 61 61 61 61 61 61 60 60 60 59 59 60 60 60 61 62 62 61 59 57 56 56 55 55 53 51 50 49 47 47 46 45 44 45
65 65 65 65 65 64 64 64 64 65 64 64 64 64 64 64 64 65 65 65 65 65 65 65 64 63 63 61 60 58 56 55 52 50 50 49 48 55 67 71 69 68 69 69 69 69 69 68 66 65 64 63 62 61 60 59 61 62 62 62 61 61 64 66 66 66 66 66 66 65 63 62 61 60 59 56 53 51 50 49 48 48 48 48 48
66 66 66 66 65 65 65 65 65 65 65 66 66 66 66 67 67 67 67 68 68 67 67 67 66 66 65 64 63 61 59 57 56 53 52 52 51 54 64 72 72 70 70 70 71 72 72 72 70 68 67 66 64 63 61 58 60 63 63 64 63 63 65 68 68 68 69 69 69 68 66 66 65 63 61 57 54 53 52 51 50 50 51 51 50
66 66 66 66 66 66 66 66 66 67 67 68 68 69 69 70 70 70 70 71 71 71 71 70 70 69 68 67 66 65 63 60 59 57 55 55 55 55 61 71 76 74 72 72 72 73 74 74 74 72 70 69 68 67 65 62 61 62 62 63 64 64 65 65 66 67 68 68 67 65 64 66 68 65 62 59 57 55 54 54 54 54 54 53 53
66 66 66 67 67 67 67 68 69 69 70 70 71 71 72 72 73 73 73 73 74 74 74 74 73 72 71 70 69 68 66 64 62 60 58 57 58 58 60 68 75 78 76 75 74 75 75 76 76 75 73 72 71 70 69 67 65 63 63 64 64 65 65 63 64 66 66 65 64 62 63 67 68 65 63 62 60 59 58 57 57 57 56 55 55
67 67 67 68 68 69 69 70 71 72 73 73 74 74 75 75 76 76 76 76 76 76 77 77 76 75 74 73 72 70 69 68 65 63 61 59 60 61 62 66 73 79 80 79 78 77 77 78 78 77 76 75 74 73 72 70 68 67 66 66 66 66 65 64 65 67 66 66 66 64 64 67 66 64 64 64 62 63 62 59 59 60 58 56 56
68 68 69 70 70 71 72 73 74 75 76 76 77 78 78 78 78 79 79 79 78 78 79 78 78 78 77 76 75 73 72 71 69 66 64 62 62 63 64 67 71 77 82 83 82 81 80 80 80 80 79 78 78 78 76 74 71 69 68 68 68 66 64 65 68 69 69 69 68 66 65 66 65 64 65 65 64 63 62 60 63 64 61 58 58
69 70 71 72 73 74 75 76 77 78 79 79 80 80 81 81 81 81 81 80 80 79 79 79 78 78 78 77 76 75 74 73 72 70 68 66 65 65 67 69 71 75 81 85 86 85 84 84 83 83 82 82 82 82 81 78 74 72 71 71 70 67 66 67 70 71 72 71 70 67 66 66 66 65 66 65 64 63 61 61 65 67 64 61 61
71 72 73 75 76 77 78 79 80 81 81 82 82 82 82 82 81 81 80 80 79 78 78 77 77 76 76 75 75 74 74 74 73 72 71 70 68 68 70 72 74 76 80 85 89 89 87 87 87 87 85 85 85 85 85 83 79 76 74 73 73 72 71 71 73 74 74 73 72 70 69 68 67 67 68 68 67 66 65 63 64 67 67 65 64
73 74 76 77 78 79 81 81 82 83 83 83 82 82 82 81 80 79 79 78 77 76 75 75 74 74 73 73 73 72 72 72 72 72 72 72 71 71 72 74 77 78 80 84 89 92 91 90 90 90 89 88 88 88 88 87 84 81 78 76 77 78 77 75 75 75 76 76 75 74 73 72 71 71 72 72 72 70 68 66 65 67 69 68 67
75 76 77 79 80 81 82 83 83 83 83 82 81 80 79 78 77 76 75 74 73 72 71 71 70 70 69 69 70 70 70 70 71 71 71 71 72 72 73 76 79 81 83 85 89 93 95 94 93 93 93 92 91 91 91 90 89 86 84 81 80 80 80 80 78 77 77 77 77 77 76 76 75 75 76 76 74 72 70 68 68 70 70 70 70
77 78 79 80 81 81 82 82 82 82 81 80 79 77 76 74 72 71 70 69 69 67 66 66 66 66 65 64 64 65 66 67 68 69 70 71 71 72 74 76 79 83 85 87 90 94 97 98 96 96 95 95 94 93 93 93 92 90 88 86 83 81 82 83 83 81 79 79 78 78 79 78 76 76 77 76 76 74 73 71 71 72 72 71 71
78 79 80 80 80 80 80 80 79 79 78 77 75 74 72 70 68 66 65 65 65 64 62 61 62 63 63 62 60 60 62 63 65 66 68 70 71 72 74 75 79 83 86 89 91 94 97 99 100 99 98 98 97 96 95 95 95 94 92 88 86 84 83 84 85 85 84 82 81 80 81 80 78 77 76 76 75 75 75 74 74 74 73 72 73
78 78 78 78 78 77 76 76 75 75 74 73 71 70 68 67 64 62 61 61 60 60 59 58 57 58 59 60 59 57 57 59 61 62 64 66 69 71 74 75 78 81 85 89 92 94 97 100 102 103 102 101 100 98 98 97 97 96 95 91 88 87 86 86 86 87 86 85 83 82 81 81 80 78 77 77 77 76 76 76 76 76 75 75 76
77 76 76 75 74 73 72 72 71 70 68 67 66 65 64 63 62 60 59 58 57 56 56 56 55 54 55 56 58 57 54 54 57 59 61 63 65 69 72 75 77 80 83 88 92 94 96 99 102 104 105 104 103 101 101 100 99 98 97 95 92 91 91 90 90 89 89 88 86 84 83 82 81 80 79 79 79 79 79 79 80 80 80 80 80
74 73 71 70 69 68 67 66 65 64 63 62 61 61 61 60 59 57 56 55 54 52 52 52 52 51 51 52 54 56 54 52 52 55 58 60 62 65 69 73 77 79 82 86 90 93 95 97 100 104 106 107 106 104 103 103 102 101 100 98 96 95 95 94 93 92 91 91 90 89 88 86 86 85 84 83 83 84 84 84 84 84 84 83 83
69 68 67 66 64 63 61 60 60 60 60 59 59 58 57 56 55 54 53 52 51 50 50 50 49 49 48 48 49 52 54 52 50 51 54 57 59 62 65 69 73 78 81 84 88 91 95 97 99 102 105 107 108 107 106 105 105 104 103 102 101 99 98 97 96 95 94 94 93 93 92 92 91 91 90 89 88 88 88 88 87 87 86 86 86
64 62 61 59 58 57 57 57 57 57 57 56 56 56 55 54 52 51 51 50 50 49 49 48 47 46 46 45 44 47 50 52 50 49 50 53 56 59 62 65 69 74 79 83 86 89 93 96 98 100 103 106 108 109 109 108 107 106 105 105 104 103 102 101 99 98 98 97 97 97 96 96 95 95 95 94 93 93 92 91 90 90 89 88 88
57 55 54 53 53 54 54 54 54 54 54 54 54 54 54 54 53 51 50 49 49 48 49 49 47 45 45 44 42 42 45 48 50 48 48 50 53 55 58 61 65 70 75 81 85 88 91 95 98 100 102 105 108 110 110 110 109 109 108 107 106 106 105 104 103 102 101 101 100 100 99 99 98 98 98 98 97 97 95 94 94 93 92 91 91
50 49 50 50 50 50 51 51 52 52 52 53 53 54 54 54 54 53 51 50 48 47 47 48 47 46 44 43 41 40 40 43 46 48 47 47 49 52 55 58 61 65 70 76 82 86 90 93 97 100 102 103 106 109 110 111 110 110 110 109 109 108 107 107 106 105 105 104 104 103 103 102 101 100 99 99 98 98 98 97 96 95 94 94 94
46 47 47 47 47 48 48 49 50 51 52 53 53 54 54 54 54 53 52 50 48 45 44 45 45 46 45 43 41 40 38 38 41 45 46 46 46 48 51 54 58 61 66 71 77 82 87 91 95 98 101 103 105 107 110 111 112 111 110 110 110 110 110 109 108 108 107 107 106 105 105 104 103 102 101 100 99 98 98 97 97 97 96 95 95
44 44 44 45 45 46 47 48 50 51 52 53 53 53 53 53 53 52 51 50 48 44 42 40 41 42 42 42 41 40 38 37 37 40 43 45 45 45 47 51 54 58 62 67 72 77 82 88 92 96 99 102 104 106 108 110 113 113 112 110 110 110 110 110 110 110 109 109 108 107 106 105 104 103 102 101 100 98 97 97 97 97 97 97 97
41 42 42 43 45 45 46 47 48 49 49 50 51 51 51 51 50 50 50 49 48 45 42 40 39 38 39 39 39 38 38 37 36 36 39 42 44 44 45 47 51 54 58 62 67 72 77 82 87 92 96 100 103 105 107 109 111 114 114 113 111 110 109 109 110 110 110 110 110 109 108 107 106 105 103 102 101 100 99 98 97 97 97 97 97
39 40 42 43 44 45 46 47 47 47 48 48 49 49 50 50 49 49 48 48 48 46 44 41 39 38 37 37 37 36 35 36 36 35 35 38 41 43 43 44 47 51 54 58 62 67 72 77 82 87 93 97 100 103 105 107 109 112 114 116 115 113 111 109 109 109 109 109 109 109 109 109 108 108 107 106 104 103 102 101 100 99 98 98 97
38 40 42 43 44 45 45 46 47 47 47 48 48 49 49 49 49 48 47 47 47 47 45 42 40 38 36 36 36 35 34 34 34 35 34 35 37 39 42 43 44 47 50 54 58 62 67 71 76 81 87 92 97 100 103 105 107 109 111 114 116 117 116 113 111 109 109 109 108 108 108 108 108 108 108 107 107 106 105 104 103 102 101 101 100
39 40 42 43 43 44 44 45 45 45 45 45 46 47 47 48 48 47 47 46 46 46 45 44 42 39 37 35 35 34 33 32 33 33 33 33 34 36 38 41 42 44 46 50 54 58 62 66 71 75 80 85 90 95 99 103 105 107 109 110 113 116 118 118 116 114 111 110 109 109 109 108 108 107 107 107 107 107 106 105 105 104 104 103 103
38 40 41 42 42 42 43 43 43 44 44 43 43 44 45 46 46 46 45 45 45 45 45 44 43 41 38 35 33 33 33 32 32 32 32 32 32 33 35 37 40 42 44 46 49 53 57 61 65 70 74 79 83 88 93 98 102 105 107 108 110 112 114 117 119 119 118 115 113 111 110 110 110 109 109 108 108 108 107 107 107 106 106 106 106
38 39 40 40 41 41 41 42 42 43 43 42 42 42 42 44 44 45 45 44 44 44 44 44 43 42 39 36 32 31 31 31 31 30 31 31 32 32 32 34 36 39 41 43 46 48 52 56 60 65 69 73 77 81 86 90 95 99 103 106 108 109 111 113 115 118 120 120 119 117 115 113 112 111 111 110 110 110 110 110 109 109 109 109 109
37 38 39 39 40 41 41 41 42 42 42 42 42 41 41 42 43 44 44 44 44 43 43 43 42 42 40 38 35 32 30 30 30 30 30 30 31 31 31 32 34 36 38 41 43 45 48 51 55 59 64 68 71 75 80 84 88 92 96 100 104 106 108 110 111 113 116 118 120 121 120 119 117 115 114 113 112 112 112 112 112 112 111 111 111
37 37 38 38 39 40 40 41 41 42 41 41 41 41 41 40 41 41 42 43 43 43 43 43 43 42 41 39 37 34 31 30 30 30 29 29 30 30 31 31 32 33 35 37 40 43 45 47 50 54 58 62 66 70 74 78 81 85 89 93 97 100 103 106 108 110 111 113 116 118 120 121 121 121 120 119 118 116 115 115 115 114 114 113 113
37 37 37 37 38 38 39 40 41 41 41 41 40 40 40 40 40 40 41 41 42 43 43 42 42 42 41 40 38 36 33 30 29 29 29 29 28 29 30 30 30 31 32 34 36 39 42 44 47 49 53 57 61 65 69 72 75 79 82 86 90 93 96 99 102 105 107 109 111 113 116 118 120 121 121 122 121 121 120 119 118 118 117 116 116
36 37 37 37 37 38 39 40 41 41 42 41 41 40 40 40 40 40 40 40 40 42 42 42 42 42 41 41 39 38 36 32 29 28 28 28 28 28 28 29 30 30 30 32 33 36 38 41 44 46 49 52 55 59 63 67 70 73 76 80 83 87 90 93 96 99 102 104 106 109 111 113 115 117 119 120 121 122 122 122 121 121 120 120 119
35 36 37 37 37 38 38 39 40 40 41 41 41 41 40 40 40 40 40 40 39 40 41 42 42 41 41 41 40 40 38 36 33 31 29 29 28 28 27 27 28 29 29 30 31 33 35 37 40 43 46 48 51 54 57 61 65 68 71 74 78 81 83 86 89 93 96 99 101 103 105 107 109 112 114 116 118 119 120 121 122 122 122 122 121
35 36 36 37 38 38 38 39 39 40 40 41 41 42 42 41 41 41 41 41 41 41 40 41 41 41 41 40 40 39 38 37 36 33 31 30 29 28 27 27 27 28 29 29 30 30 32 34 36 39 42 45 48 51 53 56 59 63 66 69 72 75 78 80 83 86 89 92 95 97 99 102 104 106 108 110 112 114 116 117 119 120 120 121 122
35 35 36 37 38 39 39 40 40 40 41 42 42 42 42 42 42 42 42 42 42 42 41 41 41 41 41 41 40 39 39 38 36 35 33 31 30 29 28 27 27 27 28 29 29 29 30 31 33 35 38 41 44 47 50 52 55 58 61 64 67 70 73 75 78 80 83 85 88 90 93 95 98 101 103 105 107 108 110 112 113 114 116 117 118
35 36 36 37 38 39 40 40 41 42 42 43 43 43 42 42 42 43 44 44 43 43 43 42 41 41 41 41 41 40 40 40 39 37 36 34 32 31 30 28 27 27 27 28 29 29 30 30 31 33 35 37 40 43 46 49 51 54 57 60 63 66 68 71 73 75 78 80 82 83 85 88 90 93 96 98 100 103 104 106 107 108 110 111 113
35 36 37 37 38 39 40 41 41 42 43 44 45 45 45 44 43 43 43 44 44 44 44 44 43 41 41 41 41 41 41 41 41 40 39 37 35 33 31 30 29 28 27 27 28 29 29 30 31 32 33 35 37 39 42 45 48 51 53 56 59 61 64 66 69 71 73 76 77 79 80 82 84 86 88 90 92 94 96 98 100 101 103 105 106
Wind_Direction
273 272 272 272 273 273 273 272 271 269 268 267 267 268 269 271 272 273 275 277 278 280 281 282 284 286 289 292 294 296 298 300 298 295 291 280 260 239 228 226 228 230 230 229 230 234 237 241 245 247 249 252 253 256 261 265 267 265 264 264 262 260 259 259 260 261 261 263 264 262 264 270 274 278 284 291 293 291 289 285 283 282 283 285 286
274 273 273 273 273 273 273 273 272 271 269 268 268 268 269 271 272 274 275 276 277 279 280 281 283 285 288 291 293 295 297 299 297 295 291 278 257 237 226 224 227 229 228 224 225 233 237 238 241 243 246 251 252 253 256 259 259 261 264 265 264 263 260 256 255 255 255 257 259 259 263 269 273 278 285 290 290 289 288 286 284 284 287 288 287
275 274 273 273 273 273 273 273 272 271 270 269 268 268 268 270 271 273 274 276 277 278 279 280 282 284 288 290 292 293 296 297 295 294 291 275 252 232 222 222 224 225 225 223 226 234 236 237 239 240 241 246 249 248 250 254 255 258 262 264 265 268 265 256 250 250 251 253 254 257 262 269 273 277 283 288 290 291 291 288 285 288 290 288 285
275 274 274 273 273 273 273 273 272 272 271 270 269 268 268 269 270 272 273 275 276 277 278 279 281 284 287 289 291 292 294 296 294 294 288 268 245 227 217 217 220 221 222 224 228 234 235 236 239 239 237 240 244 244 247 253 258 260 261 263 266 270 268 258 249 247 249 250 251 255 261 267 272 276 279 284 289 291 293 290 288 290 291 286 282
275 274 274 273 273 273 273 273 273 273 272 271 271 269 269 269 270 271 272 274 275 276 277 278 280 282 285 287 289 290 293 295 293 293 285 258 237 223 214 214 216 218 220 224 228 232 232 234 237 237 237 237 240 244 248 253 258 260 262 264 268 271 270 259 249 246 248 249 250 254 260 265 270 274 277 282 287 289 292 292 290 291 291 286 283
275 274 274 273 274 274 274 274 274 274 273 273 272 271 270 270 270 271 272 272 274 275 276 277 279 281 283 285 287 288 290 292 292 292 280 247 229 221 214 214 217 218 221 223 227 231 232 233 235 236 236 237 240 245 249 253 258 261 263 266 269 271 268 259 249 246 248 250 251 255 260 265 270 273 276 279 283 286 290 292 291 291 291 287 286
276 275 274 274 274 275 275 276 275 275 274 274 273 272 272 271 270 271 271 272 273 274 275 276 277 279 281 283 285 286 288 289 289 290 276 239 225 221 217 216 218 219 221 223 226 230 232 234 236 236 236 237 241 248 253 255 257 259 262 266 269 270 267 258 251 248 249 250 252 256 261 265 269 272 275 277 279 283 287 291 292 292 291 288 287
278 277 276 275 276 276 277 277 277 276 276 275 274 274 273 272 271 271 272 272 273 274 275 276 276 278 279 281 283 284 286 287 285 287 272 237 223 223 219 218 219 220 222 224 226 229 232 235 237 237 236 236 239 245 250 252 252 255 260 262 263 264 263 258 252 248 249 249 251 256 261 264 267 269 272 275 276 279 284 289 291 291 291 289 286
278 278 277 277 277 277 278 278 278 277 277 276 276 275 274 273 272 272 272 272 273 273 274 275 276 277 278 280 282 282 283 285 283 284 270 238 223 223 223 221 222 222 223 225 227 229 232 235 236 235 234 233 234 237 241 243 244 249 256 258 258 257 255 254 252 249 249 249 251 256 260 262 264 265 267 272 275 277 280 284 287 289 289 288 284
278 279 278 278 278 278 279 279 279 278 278 277 277 276 276 275 274 273 273 273 273 274 274 275 276 278 278 279 280 280 281 283 280 280 271 242 225 223 225 224 224 225 225 226 227 228 231 234 235 233 231 229 228 229 234 238 240 244 251 256 258 257 252 249 250 249 248 248 251 256 259 260 261 261 264 268 271 273 275 278 283 286 286 284 282
279 279 279 279 280 280 280 280 280 280 280 279 279 278 277 277 276 276 275 275 275 275 276 276 277 278 279 279 279 279 279 280 278 276 271 248 229 224 226 226 225 227 228 228 229 229 231 234 235 233 232 230 227 227 231 236 240 245 251 253 254 256 255 250 248 247 246 247 252 256 256 257 258 259 262 265 266 268 270 273 277 281 283 283 283
280 281 281 281 281 282 282 282 282 282 281 281 280 280 279 279 278 278 277 277 277 277 277 277 277 278 278 278 278 278 277 278 277 273 269 253 235 227 226 227 227 228 229 230 231 231 232 233 233 232 231 231 231 231 233 237 242 247 252 254 254 256 257 253 250 246 243 246 251 254 254 256 257 257 259 262 264 267 269 270 271 274 278 282 283
281 282 282 282 283 283 283 283 283 283 282 282 282 281 280 280 279 279 278 278 278 277 277 277 277 277 277 277 277 277 276 275 275 272 267 256 240 229 227 228 228 228 230 231 232 233 233 233 232 231 230 229 231 234 236 240 245 249 252 255 256 255 253 251 250 246 243 245 251 253 255 256 257 257 259 261 263 266 269 271 270 269 273 279 281
282 282 282 283 283 284 284 284 284 283 283 283 283 282 281 281 280 280 279 279 278 278 277 277 277 276 276 276 275 275 274 273 272 270 266 258 243 231 227 228 229 229 231 232 232 233 233 233 232 232 231 231 232 236 238 242 247 250 251 253 254 252 251 250 250 248 245 247 252 255 256 257 258 260 263 264 265 266 269 272 271 269 271 275 277
282 282 283 283 283 284 284 284 284 284 284 284 284 283 283 282 281 281 280 279 279 278 278 277 277 276 275 275 274 274 273 271 269 267 264 258 247 233 227 228 230 231 231 232 232 233 233 234 233 233 233 233 235 238 241 244 247 249 251 253 253 252 253 253 253 252 251 252 255 257 258 260 262 264 266 266 265 265 267 269 269 269 270 272 274
282 282 283 283 284 284 284 285 285 285 285 284 284 284 283 282 282 281 280 280 279 278 278 277 276 276 275 274 273 272 271 269 267 265 262 258 250 237 229 228 230 231 232 233 233 233 233 234 234 234 233 233 234 236 239 242 245 249 251 252 252 251 253 254 254 254 254 256 258 259 261 263 264 265 265 264 263 262 264 267 268 267 267 269 272
282 283 283 284 285 285 285 285 285 285 285 284 284 283 282 281 281 280 279 279 278 277 277 276 275 275 274 273 272 270 269 268 265 263 261 257 253 242 232 229 229 230 231 232 233 234 234 235 236 235 234 233 232 234 235 237 241 245 249 251 252 252 254 256 258 258 257 257 258 259 261 263 263 262 262 262 262 262 263 266 268 265 264 267 270
283 284 285 285 286 286 286 286 285 285 284 284 283 282 282 281 281 280 279 279 278 277 276 276 275 274 273 272 271 270 268 266 264 261 259 256 253 247 237 231 229 230 230 231 232 233 234 236 237 236 235 234 232 232 233 234 236 240 243 246 249 251 253 255 257 258 259 259 258 258 259 261 261 261 261 262 262 263 264 266 268 267 265 266 268
284 285 285 286 286 286 286 285 285 284 284 283 282 282 281 281 280 279 279 278 278 277 277 276 275 274 273 271 270 269 268 266 263 260 257 254 251 248 242 234 230 230 230 231 231 231 232 234 236 236 235 234 233 231 232 234 235 237 239 241 243 246 248 249 251 254 256 258 257 256 256 258 259 261 262 263 264 264 266 268 270 269 267 266 268
285 286 286 286 286 286 286 285 285 285 284 283 283 282 281 281 280 279 279 278 277 277 276 275 275 274 273 271 270 269 267 265 263 260 256 252 248 246 244 239 233 231 230 230 231 231 231 231 233 235 235 235 234 232 232 233 235 237 239 240 241 242 244 246 247 249 251 253 254 254 255 257 260 262 262 262 264 266 269 271 271 269 267 266 266
287 287 287 287 287 287 287 286 286 286 285 284 284 283 283 282 281 281 280 279 278 277 276 275 274 273 272 271 269 268 266 264 262 260 256 251 247 244 242 240 237 233 231 230 230 230 230 230 231 233 234 234 234 234 233 233 235 237 239 240 241 241 243 244 246 246 247 249 252 253 255 257 259 259 259 260 263 266 269 271 271 269 267 266 265
288 288 288 288 288 288 288 288 287 287 286 285 285 285 284 284 283 282 282 281 280 279 278 276 275 274 272 270 269 267 265 263 261 259 256 251 246 242 240 239 238 235 232 230 230 230 230 230 230 231 232 233 233 233 233 233 234 236 238 239 240 240 241 243 245 246 247 249 251 253 254 255 256 257 257 258 260 263 266 268 269 269 268 266 265
289 289 289 289 289 289 288 288 288 287 287 287 286 286 286 285 285 284 284 283 282 281 279 277 276 274 272 270 268 266 264 262 260 257 255 251 247 242 238 236 236 236 234 232 230 230 230 230 230 230 230 231 232 232 232 232 233 235 237 239 240 241 242 244 246 247 248 249 250 251 252 253 254 255 255 256 258 260 263 265 266 267 267 267 267
289 289 290 290 290 289 289 289 289 289 288 288 288 288 288 287 287 286 285 284 283 282 280 279 277 275 273 271 268 266 263 261 258 256 253 251 247 243 239 236 234 235 235 233 231 230 230 230 230 229 229 230 231 231 232 232 233 234 236 238 241 242 244 245 246 246 248 249 249 250 251 253 254 254 255 256 258 260 262 263 262 263 264 267 269
290 290 290 290 290 290 290 291 290 290 290 290 290 289 289 289 288 288 287 286 284 283 281 280 278 275 273 270 268 266 263 260 258 255 252 250 247 244 240 236 234 233 234 234 232 230 230 230 229 229 229 229 229 231 231 232 234 235 236 237 240 242 243 244 245 246 247 249 250 251 252 253 254 256 257 258 260 261 261 261 261 261 262 265 267
291 291 291 291 291 292 292 292 292 292 292 291 291 291 291 291 290 289 289 287 286 284 283 281 280 278 275 272 269 266 264 261 258 255 252 249 246 244 240 237 234 233 233 234 233 231 230 230 229 229 229 229 229 230 231 232 233 235 236 237 239 241 242 243 244 245 246 248 250 251 252 253 254 256 257 258 259 260 260 260 260 261 261 263 265
291 292 292 292 292 292 292 292 293 293 293 293 293 293 293 293 292 291 290 289 287 286 284 282 280 279 277 275 271 267 264 262 259 255 252 249 246 243 241 238 235 233 232 233 234 233 231 230 230 229 229 229 229 230 231 232 233 234 235 236 238 240 241 242 244 245 246 247 247 249 251 252 253 254 255 257 258 259 260 260 260 261 262 263 265
292 292 292 292 293 293 293 293 293 294 294 295 295 295 295 294 294 293 291 290 289 287 286 284 281 279 278 276 274 270 265 262 260 257 253 250 246 244 241 238 236 234 232 232 233 233 232 231 230 230 230 230 230 230 231 231 232 233 234 235 237 239 240 241 242 244 246 248 248 248 249 251 252 253 254 255 256 258 260 261 262 262 263 264 265
292 292 293 293 293 293 294 294 294 295 295 296 296 297 296 296 296 295 294 292 290 288 287 286 284 281 278 276 275 273 268 263 260 258 255 251 247 244 241 239 236 234 233 232 232 233 233 232 231 231 230 230 231 231 231 232 232 233 234 235 236 237 239 240 241 243 245 248 249 249 250 250 251 252 253 254 256 258 259 261 262 263 264 265 266
292 293 293 293 294 294 295 295 296 296 297 297 298 298 298 298 298 297 296 294 293 291 289 287 285 283 280 276 274 273 271 267 261 258 256 252 248 245 242 240 237 235 233 232 231 232 232 232 231 231 231 231 232 232 232 232 233 233 234 234 236 237 238 240 241 243 245 247 249 250 250 251 252 253 254 255 256 258 259 260 262 263 265 266 267
292 293 294 294 295 295 296 297 297 298 299 299 299 299 300 300 300 300 300 299 297 295 293 290 287 285 282 278 274 272 272 270 264 259 256 254 250 247 243 241 238 236 234 233 232 231 232 232 232 231 231 232 232 233 233 233 234 234 235 235 236 237 239 240 241 242 244 246 248 250 251 252 253 253 254 255 256 257 259 260 262 263 265 266 267
293 294 294 295 296 297 298 298 299 300 301 302 302 303 303 304 304 304 304 303 303 301 298 295 292 289 286 282 277 272 271 270 268 262 257 254 252 249 245 242 239 237 235 234 233 232 231 231 232 231 231 231 232 233 234 234 235 235 236 236 237 238 239 241 242 242 244 245 248 250 252 253 254 254 255 256 257 258 259 260 262 263 264 265 266
293 294 295 296 297 298 299 300 301 302 304 305 306 307 308 308 308 308 307 307 306 305 303 299 296 293 290 287 282 276 271 270 269 266 260 256 253 250 247 244 241 238 236 235 234 233 232 231 231 232 232 232 232 233 234 235 236 236 237 237 238 239 240 241 242 243 244 245 247 249 251 253 254 255 256 257 258 259 259 261 262 263 264 265 265
294 295 296 297 298 300 302 303 305 307 308 309 310 310 311 311 311 311 310 309 309 307 305 303 300 297 294 291 287 281 275 270 268 267 264 259 254 251 249 246 243 240 237 236 235 234 233 232 232 232 232 232 233 233 233 235 236 237 238 238 239 240 241 242 243 244 245 246 247 248 250 252 254 255 257 258 259 260 261 261 262 263 264 265 265
294 296 297 299 301 303 306 307 309 310 311 312 312 313 313 313 313 312 311 311 310 309 307 304 302 300 297 295 291 287 281 274 269 267 265 262 257 253 250 248 245 242 239 237 236 235 235 234 233 232 233 233 233 233 234 234 235 236 238 239 240 241 241 242 243 244 245 246 248 249 250 252 253 255 256 258 259 261 261 262 263 263 264 265 266
296 298 301 303 306 308 309 311 312 313 313 314 313 313 313 313 313 313 312 312 311 311 309 306 303 301 299 296 294 291 286 280 272 267 265 264 261 256 252 249 247 244 241 239 238 236 236 235 235 234 233 233 234 234 234 235 235 236 237 238 240 241 242 242 243 244 245 246 248 249 250 252 253 254 255 257 258 259 261 262 263 264 265 265 266
299 302 305 307 309 310 311 312 312 313 313 312 312 312 313 313 314 315 315 315 315 314 314 312 308 304 301 298 296 293 289 285 278 271 266 264 263 259 255 251 248 246 243 241 239 238 237 236 236 235 235 235 235 235 235 236 236 236 236 237 239 240 241 242 243 244 245 246 247 248 249 251 252 254 255 256 257 259 260 261 262 264 265 265 266
303 306 308 309 310 311 312 313 313 313 314 314 315 316 316 316 317 318 318 319 319 318 318 316 314 311 307 303 300 296 292 288 284 277 271 265 263 262 258 254 250 247 245 242 241 239 238 237 236 236 236 236 236 236 236 236 237 237 237 237 238 239 240 242 243 244 245 246 247 248 249 250 251 252 253 254 256 257 258 259 260 262 263 264 265
306 308 309 310 311 312 313 314 315 317 318 318 319 319 319 319 320 321 321 322 321 320 320 319 318 316 313 310 306 301 296 292 287 283 277 271 265 262 261 258 254 250 247 245 242 241 240 239 238 237 237 237 237 237 237 237 238 238 238 238 238 239 239 240 242 243 245 246 247 248 248 249 250 251 252 253 254 255 257 258 259 260 261 262 263
309 310 310 311 312 313 315 316 317 317 318 318 319 320 320 321 321 322 322 323 323 322 322 322 321 320 318 315 312 307 302 297 292 287 282 277 271 266 262 260 257 253 250 247 244 242 241 240 239 239 238 238 238 238 238 238 239 239 239 239 240 240 240 240 241 242 244 245 246 247 248 249 250 251 252 253 253 254 255 256 257 258 259 260 261
309 309 310 311 312 313 314 315 316 317 318 319 320 321 322 322 322 323 324 325 325 325 325 324 324 322 321 319 316 312 307 302 297 292 287 282 277 271 266 262 259 257 254 250 247 245 242 241 240 240 239 239 239 239 239 239 239 240 240 240 241 241 241 241 241 242 243 244 245 247 248 249 250 251 251 252 253 254 255 255 256 257 258 259 260
308 309 310 311 312 313 314 316 317 318 319 320 321 322 323 324 325 326 326 327 328 327 327 326 325 324 322 321 319 316 312 308 302 297 292 287 282 277 272 267 262 259 256 254 250 247 245 243 241 241 240 240 240 240 240 240 240 240 241 241 242 242 242 242 243 243 243 244 245 246 247 249 250 251 251 252 253 254 255 256 256 257 258 259 260
308 309 310 312 314 315 316 317 319 320 321 322 324 325 327 328 328 328 329 329 329 329 328 328 328 327 326 325 323 322 319 315 310 304 298 293 288 283 277 272 267 263 259 256 254 251 248 245 243 242 241 241 241 241 241 241 241 241 241 242 242 243 243 244 244 244 245 245 246 246 247 248 249 251 252 252 253 254 255 256 257 258 258 259 260
308 309 311 313 315 316 318 319 320 321 322 324 326 328 329 330 330 330 330 330 330 330 331 331 330 330 330 329 327 326 324 321 316 311 305 299 294 289 284 278 273 268 263 259 256 254 251 249 246 244 243 242 242 242 242 242 242 243 243 243 243 244 244 245 245 245 246 246 247 247 248 249 249 250 252 253 254 255 256 257 258 258 259 260 260
309 311 313 315 316 317 318 319 320 321 322 324 327 328 330 331 332 332 333 333 333 333 333 333 333 332 332 331 329 328 326 324 321 316 311 306 300 295 290 285 279 274 269 264 260 257 255 252 250 247 246 244 243 243 243 243 243 243 244 244 244 245 245 245 246 246 247 247 248 248 249 249 250 251 252 253 254 255 256 257 258 259 260 260 261
310 312 314 316 317 318 319 320 321 323 324 326 327 329 331 333 333 334 334 335 335 335 334 335 335 334 334 333 332 331 329 327 325 322 317 312 307 302 296 291 286 281 275 270 265 261 258 255 253 251 249 247 246 244 244 244 244 244 244 245 245 246 246 246 247 247 248 248 249 249 250 250 251 251 252 253 254 255 256 257 258 259 260 261 261
311 313 314 316 318 319 320 321 323 324 326 327 329 331 332 333 334 335 336 336 337 337 337 336 336 336 336 336 335 334 332 331 330 328 324 320 315 309 304 298 292 287 282 276 271 266 262 258 256 254 252 250 249 247 246 245 245 245 245 245 246 246 247 247 248 248 248 249 250 250 251 251 252 252 253 253 254 255 256 257 258 259 260 261 261
311 313 315 317 318 319 321 322 323 325 327 329 331 332 333 334 336 337 337 338 338 338 338 337 337 337 337 337 336 335 334 333 332 331 328 324 320 316 311 305 299 294 288 283 278 273 268 263 260 257 255 253 252 250 248 247 246 246 246 246 246 247 247 248 248 249 249 250 250 251 251 252 253 253 254 254 255 256 256 257 258 258 259 260 261
311 313 315 317 318 320 322 324 326 327 329 330 331 333 334 335 337 337 338 339 339 339 339 339 339 338 337 337 337 337 335 334 333 333 332 329 325 321 316 311 306 300 295 290 285 280 275 270 265 261 258 256 254 252 251 250 249 248 247 247 247 247 247 248 248 249 249 250 251 251 252 252 253 254 254 255 256 256 257 258 258 259 260 260 261
311 313 315 316 318 320 323 325 327 329 330 331 331 332 334 335 337 338 339 339 339 339 339 339 339 339 338 338 338 339 338 337 336 335 334 332 329 325 321 316 311 306 300 295 291 287 282 277 272 267 263 260 257 255 254 253 251 250 249 249 248 248 248 248 249 249 250 250 251 251 252 253 253 254 255 255 256 257 258 258 259 260 260 261 262
310 312 315 317 320 322 324 326 328 329 330 331 332 333 334 335 337 338 338 339 339 339 340 339 339 339 339 339 339 339 340 339 338 336 335 333 331 328 325 321 316 311 306 300 295 291 287 283 278 274 269 265 262 259 257 255 254 252 252 251 250 250 250 250 250 250 251 251 252 252 252 253 253 254 255 255 256 257 258 258 259 260 261 261 262
Height
10640 10640 10640 10640 10639 10639 10639 10638 10637 10637 10637 10637 10638 10638 10638 10638 10637 10637 10636 10636 10636 10635 10635 10634 10633 10631 10630 10629 10626 10623 10620 10617 10613 10611 10608 10607 10607 10608 10611 10613 10615 10617 10618 10620 10623 10625 10626 10628 10630 10632 10634 10634 10635 10636 10638 10637 10635 10633 10632 10632 10633 10635 10637 10638 10641 10643 10644 10646 10647 10649 10649 10647 10646 10648 10649 10648 10646 10646 10645 10645 10643 10643 10643 10642 10641
10633 10633 10633 10633 10632 10632 10632 10631 10630 10630 10630 10630 10630 10630 10631 10630 10629 10629 10628 10628 10628 10628 10628 10627 10626 10625 10624 10623 10620 10617 10615 10612 10608 10605 10602 10600 10601 10603 10605 10607 10609 10610 10612 10615 10617 10619 10620 10622 10625 10626 10628 10628 10629 10631 10632 10632 10631 10628 10625 10625 10627 10629 10631 10633 10635 10636 10638 10640 10642 10643 10643 10642 10641 10643 10645 10644 10642 10641 10641 10640 10639 10638 10639 10638 10637
10626 10626 10626 10625 10625 10625 10624 10624 10623 10623 10623 10623 10623 10623 10623 10623 10622 10621 10621 10620 10620 10621 10620 10620 10619 10618 10617 10616 10613 10611 10609 10606 10602 10600 10597 10594 10595 10597 10599 10601 10603 10605 10607 10609 10612 10613 10615 10617 10619 10620 10622 10623 10624 10626 10626 10626 10625 10622 10620 10620 10622 10625 10626 10628 10629 10631 10632 10635 10637 10637 10637 10637 10637 10638 10640 10641 10637 10635 10636 10636 10634 10634 10634 10633 10632
10618 10618 10618 10618 10617 10617 10617 10616 10616 10616 10616 10616 10615 10615 10615 10615 10614 10614 10613 10613 10613 10613 10613 10613 10612 10611 10611 10610 10607 10605 10603 10600 10597 10594 10591 10589 10590 10592 10594 10596 10597 10599 10601 10604 10606 10608 10609 10611 10612 10614 10616 10617 10618 10620 10620 10619 10619 10616 10615 10616 10617 10619 10622 10623 10624 10626 10627 10629 10631 10632 10632 10633 10633 10633 10635 10636 10633 10630 10631 10632 10630 10629 10629 10629 10628
10611 10611 10610 10610 10610 10610 10610 10609 10609 10609 10608 10608 10608 10607 10607 10607 10607 10606 10606 10605 10605 10605 10605 10605 10605 10604 10604 10603 10601 10599 10596 10594 10591 10588 10586 10584 10585 10588 10589 10590 10592 10593 10595 10598 10600 10601 10603 10605 10606 10607 10610 10611 10612 10614 10614 10613 10613 10610 10609 10610 10611 10613 10616 10618 10619 10620 10622 10624 10625 10626 10627 10629 10629 10627 10629 10631 10629 10626 10627 10627 10626 10625 10625 10624 10624
10603 10603 10602 10602 10602 10602 10602 10602 10602 10602 10601 10600 10600 10599 10599 10599 10599 10598 10598 10598 10597 10597 10598 10598 10597 10597 10597 10596 10595 10593 10590 10588 10585 10582 10580 10580 10581 10583 10584 10585 10586 10588 10590 10593 10595 10596 10597 10599 10601 10602 10604 10606 10607 10608 10607 10607 10607 10603 10603 10605 10607 10608 10610 10612 10614 10615 10617 10618 10620 10621 10622 10624 10624 10622 10623 10625 10624 10621 10621 10622 10621 10621 10621 10620 10620
10596 10595 10595 10595 10595 10594 10594 10595 10595 10594 10593 10593 10592 10592 10591 10591 10591 10590 10590 10590 10589 10589 10590 10590 10590 10590 10589 10589 10589 10586 10584 10582 10580 10577 10575 10575 10576 10578 10579 10580 10581 10583 10585 10587 10588 10589 10591 10593 10595 10597 10599 10601 10602 10602 10601 10602 10602 10598 10599 10602 10602 10602 10604 10606 10609 10611 10612 10612 10614 10615 10617 10619 10619 10617 10617 10619 10619 10616 10615 10617 10616 10616 10616 10616 10616
10588 10588 10587 10587 10587 10587 10587 10587 10587 10586 10586 10585 10585 10584 10583 10583 10583 10582 10582 10581 10581 10581 10581 10581 10582 10582 10582 10581 10581 10579 10577 10575 10574 10572 10570 10570 10572 10573 10574 10574 10576 10578 10580 10581 10582 10583 10585 10587 10589 10592 10594 10596 10598 10597 10596 10597 10597 10595 10595 10598 10598 10597 10598 10600 10603 10605 10606 10606 10608 10609 10611 10612 10613 10612 10611 10612 10614 10612 10610 10611 10611 10611 10611 10611 10612
10581 10580 10580 10579 10580 10579 10579 10579 10578 10578 10577 10577 10576 10576 10575 10575 10574 10574 10574 10573 10573 10573 10573 10573 10573 10573 10574 10574 10573 10572 10570 10568 10568 10566 10565 10565 10566 10567 10568 10569 10570 10572 10574 10575 10576 10578 10580 10582 10584 10586 10588 10590 10593 10592 10591 10591 10592 10591 10590 10591 10592 10592 10593 10594 10597 10599 10600 10600 10602 10604 10604 10605 10607 10607 10605 10605 10607 10608 10606 10605 10605 10606 10606 10606 10607
10573 10573 10572 10572 10572 10571 10571 10570 10570 10569 10569 10568 10568 10567 10567 10566 10566 10565 10565 10565 10564 10564 10564 10564 10564 10564 10565 10565 10565 10564 10563 10562 10561 10560 10559 10558 10560 10561 10562 10563 10564 10565 10567 10568 10570 10572 10574 10576 10578 10580 10582 10584 10585 10585 10584 10584 10585 10585 10584 10585 10586 10586 10587 10588 10590 10593 10593 10593 10596 10598 10598 10598 10600 10601 10599 10599 10601 10602 10602 10601 10600 10600 10601 10600 10601
10565 10564 10564 10564 10564 10563 10562 10562 10561 10560 10560 10559 10559 10558 10558 10557 10557 10556 10556 10556 10556 10556 10555 10555 10555 10555 10556 10556 10556 10556 10555 10554 10553 10553 10553 10552 10553 10555 10556 10557 10558 10559 10560 10562 10564 10566 10567 10570 10571 10573 10575 10577 10578 10578 10577 10577 10578 10579 10578 10578 10579 10580 10581 10582 10584 10587 10587 10587 10589 10591 10591 10592 10594 10595 10594 10592 10593 10595 10597 10597 10596 10595 10595 10595 10595
10557 10556 10555 10555 10555 10555 10554 10553 10552 10551 10550 10550 10550 10549 10549 10548 10547 10547 10547 10546 10546 10546 10546 10546 10546 10546 10546 10547 10547 10547 10547 10546 10546 10545 10545 10545 10545 10547 10548 10550 10551 10552 10553 10555 10557 10558 10561 10563 10564 10566 10568 10570 10569 10569 10570 10571 10573 10572 10571 10571 10573 10576 10578 10577 10577 10579 10580 10581 10583 10584 10584 10586 10588 10589 10589 10587 10587 10588 10590 10593 10593 10592 10590 10589 10589
10549 10547 10547 10547 10546 10546 10545 10544 10542 10541 10541 10540 10540 10540 10539 10539 10538 10537 10536 10536 10536 10536 10536 10536 10536 10536 10537 10537 10538 10538 10538 10538 10537 10537 10537 10537 10537 10539 10541 10542 10543 10544 10546 10548 10550 10552 10554 10556 10557 10558 10560 10561 10562 10562 10564 10565 10566 10566 10566 10565 10566 10570 10571 10569 10569 10571 10572 10574 10576 10577 10579 10581 10582 10583 10583 10583 10582 10581 10583 10586 10588 10588 10587 10585 10584
10541 10539 10538 10538 10538 10537 10536 10534 10533 10532 10531 10531 10530 10530 10530 10529 10528 10527 10526 10526 10526 10526 10526 10526 10526 10527 10527 10527 10528 10528 10529 10529 10529 10528 10528 10529 10529 10530 10532 10534 10535 10537 10539 10540 10543 10545 10546 10549 10550 10551 10553 10555 10555 10556 10558 10559 10559 10560 10561 10560 10560 10561 10561 10560 10561 10563 10565 10568 10570 10571 10574 10576 10576 10576 10577 10579 10579 10576 10576 10578 10580 10581 10581 10580 10579
10532 10531 10530 10530 10529 10528 10527 10525 10524 10523 10522 10522 10521 10520 10520 10519 10518 10517 10516 10516 10516 10516 10515 10515 10516 10516 10516 10517 10518 10518 10519 10519 10519 10519 10519 10520 10521 10522 10524 10525 10527 10529 10531 10532 10535 10537 10539 10541 10542 10544 10546 10548 10549 10550 10551 10552 10553 10553 10554 10555 10554 10554 10554 10553 10555 10557 10559 10562 10564 10565 10568 10569 10569 10569 10570 10572 10574 10572 10570 10572 10573 10573 10574 10574 10573
10524 10523 10521 10521 10520 10520 10518 10517 10515 10514 10513 10513 10512 10511 10510 10509 10508 10507 10505 10505 10505 10505 10504 10504 10504 10505 10505 10506 10507 10508 10508 10509 10509 10510 10510 10510 10511 10512 10514 10516 10518 10520 10522 10524 10526 10528 10530 10532 10534 10536 10538 10540 10542 10543 10545 10546 10546 10545 10546 10547 10548 10548 10546 10545 10548 10551 10553 10555 10557 10559 10561 10562 10562 10562 10562 10563 10566 10566 10565 10566 10567 10567 10567 10567 10568
10516 10515 10513 10512 10511 10511 10509 10508 10507 10505 10504 10503 10502 10501 10500 10498 10497 10497 10495 10494 10493 10493 10493 10492 10493 10493 10493 10494 10495 10497 10498 10498 10499 10500 10500 10501 10501 10502 10504 10506 10508 10511 10513 10514 10516 10519 10521 10523 10525 10527 10529 10531 10534 10535 10537 10539 10538 10537 10538 10539 10540 10541 10539 10537 10541 10544 10546 10548 10550 10552 10554 10554 10552 10553 10554 10555 10557 10558 10558 10559 10561 10561 10561 10562 10562
10508 10507 10505 10504 10502 10501 10500 10498 10497 10496 10494 10493 10492 10490 10489 10487 10486 10485 10484 10483 10482 10481 10480 10480 10480 10481 10481 10482 10483 10484 10485 10486 10487 10489 10489 10490 10491 10492 10493 10495 10498 10500 10502 10504 10506 10508 10511 10513 10515 10518 10520 10522 10525 10527 10528 10530 10529 10530 10532 10532 10533 10534 10533 10533 10535 10536 10537 10540 10542 10546 10548 10543 10540 10543 10547 10548 10549 10550 10551 10552 10552 10554 10556 10556 10556
10500 10498 10497 10495 10493 10492 10490 10488 10487 10485 10484 10482 10481 10479 10478 10476 10474 10473 10472 10471 10470 10469 10467 10467 10467 10467 10468 10469 10470 10471 10472 10473 10475 10476 10478 10479 10480 10481 10482 10484 10486 10489 10492 10494 10495 10498 10501 10503 10505 10508 10510 10513 10516 10518 10519 10520 10520 10522 10524 10524 10525 10527 10527 10530 10530 10528 10528 10530 10533 10538 10539 10531 10530 10537 10541 10541 10541 10540 10541 10543 10544 10545 10548 10549 10548
10491 10490 10488 10486 10484 10482 10480 10478 10476 10474 10472 10470 10469 10467 10465 10464 10462 10461 10459 10458 10457 10456 10454 10453 10453 10453 10453 10454 10456 10457 10458 10459 10461 10463 10465 10467 10468 10469 10470 10472 10474 10477 10480 10482 10485 10487 10489 10492 10495 10498 10501 10504 10506 10509 10510 10510 10511 10513 10515 10515 10517 10519 10522 10524 10523 10521 10521 10520 10520 10526 10527 10522 10523 10531 10532 10532 10532 10529 10530 10534 10535 10534 10538 10540 10540
10482 10480 10478 10476 10474 10471 10469 10467 10465 10463 10460 10458 10456 10454 10452 10450 10449 10447 10445 10444 10443 10442 10440 10439 10439 10438 10438 10439 10441 10442 10443 10445 10446 10448 10451 10453 10455 10457 10458 10460 10462 10464 10467 10470 10473 10475 10478 10481 10484 10487 10491 10494 10497 10499 10501 10502 10503 10505 10506 10506 10508 10512 10515 10515 10513 10513 10513 10510 10511 10516 10518 10515 10517 10521 10522 10523 10523 10521 10522 10525 10523 10521 10527 10531 10530
10473 10471 10468 10466 10463 10461 10458 10455 10453 10450 10448 10445 10443 10441 10439 10437 10435 10433 10431 10429 10428 10427 10425 10424 10423 10423 10423 10423 10425 10426 10427 10429 10431 10434 10436 10439 10441 10443 10445 10447 10449 10451 10454 10457 10460 10463 10466 10469 10473 10476 10480 10483 10486 10489 10491 10493 10495 10496 10496 10497 10500 10504 10506 10505 10503 10504 10505 10504 10506 10509 10509 10509 10510 10512 10513 10514 10514 10515 10518 10519 10513 10510 10515 10520 10520
10464 10461 10459 10456 10453 10450 10447 10444 10441 10438 10435 10433 10430 10428 10425 10423 10421 10418 10416 10414 10412 10411 10410 10408 10407 10407 10406 10407 10408 10410 10411 10413 10415 10418 10420 10423 10426 10429 10431 10433 10435 10438 10440 10443 10447 10451 10454 10457 10461 10464 10468 10471 10475 10478 10481 10483 10485 10486 10487 10489 10491 10493 10494 10494 10495 10495 10497 10499 10500 10500 10501 10502 10502 10503 10504 10505 10506 10508 10511 10513 10510 10504 10504 10507 10509
10455 10452 10449 10446 10442 10439 10435 10432 10429 10426 10423 10420 10417 10415 10412 10409 10407 10404 10402 10399 10397 10395 10394 10392 10391 10390 10390 10390 10391 10393 10394 10396 10398 10401 10404 10406 10410 10413 10416 10419 10421 10424 10426 10429 10433 10437 10441 10445 10448 10452 10456 10460 10463 10467 10470 10473 10475 10477 10478 10480 10480 10481 10483 10484 10485 10486 10488 10489 10490 10491 10492 10493 10494 10495 10496 10496 10499 10501 10504 10506 10506 10501 10497 10498 10499
10446 10443 10439 10435 10432 10428 10424 10420 10416 10413 10410 10407 10404 10402 10399 10396 10394 10391 10388 10385 10383 10381 10380 10378 10375 10374 10375 10375 10375 10376 10377 10379 10381 10384 10387 10390 10393 10397 10401 10404 10407 10410 10413 10415 10419 10423 10428 10432 10436 10439 10443 10447 10451 10454 10458 10461 10464 10466 10468 10470 10470 10471 10473 10473 10474 10476 10478 10478 10480 10482 10483 10484 10485 10487 10488 10489 10491 10493 10495 10497 10497 10494 10493 10493 10491
10436 10433 10429 10425 10421 10418 10413 10409 10405 10401 10398 10394 10391 10389 10386 10384 10382 10379 10375 10372 10369 10368 10367 10365 10362 10360 10359 10360 10361 10361 10362 10363 10365 10368 10371 10374 10378 10381 10385 10388 10392 10395 10398 10401 10405 10409 10414 10418 10423 10427 10430 10435 10438 10442 10445 10449 10452 10455 10457 10459 10461 10461 10462 10462 10462 10465 10468 10469 10471 10472 10472 10473 10476 10478 10479 10481 10482 10483 10485 10487 10487 10485 10486 10487 10485
10427 10423 10419 10415 10411 10407 10403 10399 10395 10390 10386 10383 10380 10377 10374 10371 10370 10368 10364 10360 10357 10355 10354 10353 10350 10347 10346 10346 10347 10348 10348 10349 10350 10353 10356 10359 10363 10366 10369 10373 10376 10380 10383 10387 10391 10395 10400 10404 10409 10414 10417 10422 10426 10429 10432 10436 10439 10442 10445 10448 10450 10451 10452 10452 10453 10454 10456 10458 10461 10462 10462 10463 10466 10469 10470 10471 10472 10473 10474 10476 10476 10476 10478 10479 10478
10417 10413 10409 10406 10402 10398 10394 10389 10385 10381 10377 10373 10370 10367 10363 10360 10358 10356 10353 10349 10347 10345 10343 10341 10339 10337 10334 10333 10333 10334 10335 10336 10337 10338 10341 10344 10348 10351 10354 10357 10361 10365 10369 10373 10376 10381 10386 10390 10395 10400 10405 10409 10413 10416 10420 10423 10426 10430 10434 10438 10439 10439 10440 10442 10443 10443 10444 10447 10450 10453 10453 10454 10456 10459 10461 10462 10463 10464 10465 10465 10465 10467 10469 10470 10469
10407 10403 10400 10397 10393 10389 10385 10380 10376 10373 10369 10365 10360 10357 10353 10350 10348 10345 10342 10339 10337 10335 10332 10330 10328 10327 10324 10322 10321 10321 10322 10324 10325 10325 10327 10330 10333 10336 10339 10343 10347 10350 10354 10358 10362 10366 10371 10376 10381 10386 10391 10396 10400 10403 10407 10410 10413 10417 10422 10425 10427 10427 10427 10429 10433 10435 10436 10437 10440 10442 10444 10445 10447 10449 10452 10454 10455 10455 10456 10455 10456 10456 10458 10459 10460
10397 10394 10391 10388 10384 10381 10377 10372 10368 10364 10361 10358 10353 10349 10345 10341 10339 10336 10332 10328 10327 10325 10322 10320 10318 10316 10314 10312 10311 10309 10310 10312 10313 10313 10314 10316 10319 10322 10325 10329 10333 10337 10341 10345 10348 10352 10357 10362 10367 10372 10377 10382 10386 10390 10394 10397 10400 10404 10409 10412 10414 10415 10416 10418 10422 10426 10427 10428 10429 10431 10433 10435 10437 10439 10442 10445 10446 10446 10445 10446 10446 10447 10448 10450 10450
10390 10386 10383 10379 10376 10373 10369 10365 10361 10357 10353 10350 10346 10342 10338 10334 10331 10327 10323 10319 10317 10315 10312 10310 10308 10307 10305 10303 10302 10300 10299 10300 10301 10302 10303 10304 10306 10309 10312 10316 10320 10324 10328 10332 10335 10339 10343 10348 10353 10358 10363 10368 10372 10376 10380 10384 10388 10391 10395 10399 10402 10404 10405 10408 10412 10415 10417 10418 10419 10420 10422 10424 10426 10428 10431 10433 10435 10435 10435 10436 10437 10438 10439 10440 10440
10382 10379 10376 10372 10369 10366 10362 10358 10355 10351 10347 10343 10338 10334 10330 10327 10323 10320 10315 10312 10309 10306 10302 10300 10299 10297 10295 10294 10292 10291 10290 10290 10290 10291 10293 10294 10295 10297 10300 10304 10308 10312 10315 10319 10323 10327 10330 10334 10339 10344 10349 10354 10359 10363 10367 10371 10375 10378 10382 10386 10389 10391 10394 10397 10400 10403 10406 10408 10409 10409 10411 10412 10414 10416 10419 10421 10423 10424 10425 10427 10427 10428 10429 10430 10429
10376 10373 10370 10366 10363 10360 10356 10352 10348 10344 10341 10336 10331 10327 10323 10319 10315 10312 10309 10305 10302 10299 10294 10290 10289 10288 10286 10285 10283 10282 10282 10281 10280 10281 10282 10284 10285 10286 10288 10292 10296 10300 10303 10306 10310 10314 10318 10322 10326 10330 10336 10340 10345 10350 10354 10358 10362 10366 10369 10373 10376 10379 10382 10385 10388 10391 10394 10397 10399 10400 10400 10401 10402 10404 10406 10408 10410 10413 10415 10416 10416 10417 10418 10419 10419
10370 10367 10364 10361 10358 10355 10351 10346 10342 10338 10334 10330 10325 10321 10317 10312 10308 10304 10301 10298 10296 10293 10288 10283 10280 10279 10277 10276 10275 10274 10273 10272 10272 10271 10272 10274 10275 10276 10278 10281 10284 10288 10292 10295 10298 10302 10306 10310 10313 10318 10322 10327 10332 10337 10341 10345 10349 10352 10356 10360 10363 10366 10369 10372 10376 10379 10382 10385 10387 10389 10390 10391 10393 10394 10395 10396 10398 10400 10402 10404 10405 10406 10407 10408 10408
10364 10362 10359 10356 10353 10349 10345 10341 10337 10333 10328 10324 10319 10315 10311 10307 10302 10298 10295 10291 10289 10287 10283 10278 10274 10271 10269 10267 10266 10265 10265 10264 10264 10263 10263 10264 10265 10267 10269 10271 10273 10277 10280 10283 10286 10289 10294 10298 10301 10306 10310 10314 10319 10324 10328 10332 10336 10340 10343 10347 10350 10353 10357 10360 10363 10366 10369 10372 10375 10377 10378 10380 10383 10384 10385 10386 10386 10388 10389 10391 10393 10394 10396 10397 10397
10359 10356 10354 10351 10347 10344 10340 10336 10332 10328 10323 10319 10314 10310 10306 10302 10298 10293 10289 10285 10282 10280 10277 10273 10269 10266 10263 10260 10259 10258 10256 10256 10256 10255 10255 10255 10256 10258 10260 10262 10263 10266 10269 10272 10274 10278 10282 10286 10290 10294 10298 10302 10306 10311 10315 10319 10324 10327 10331 10335 10338 10341 10344 10348 10351 10353 10356 10360 10363 10365 10367 10369 10371 10373 10374 10375 10376 10377 10378 10379 10380 10382 10384 10385 10386
10354 10351 10349 10346 10342 10339 10336 10332 10328 10324 10320 10315 10311 10306 10302 10298 10294 10289 10284 10279 10275 10272 10270 10267 10263 10260 10257 10254 10252 10251 10249 10248 10248 10248 10247 10247 10248 10249 10251 10253 10254 10256 10259 10261 10263 10267 10270 10274 10279 10283 10287 10290 10294 10298 10302 10306 10310 10314 10318 10322 10326 10329 10332 10335 10338 10341 10344 10347 10350 10353 10355 10357 10359 10361 10363 10365 10366 10367 10368 10369 10370 10371 10372 10373 10373
10350 10347 10344 10341 10338 10334 10331 10327 10323 10320 10316 10311 10306 10302 10297 10293 10288 10284 10280 10275 10270 10266 10263 10260 10257 10254 10251 10248 10246 10244 10243 10241 10240 10240 10240 10240 10240 10241 10242 10244 10245 10247 10249 10251 10253 10256 10260 10264 10268 10272 10275 10278 10282 10286 10289 10293 10297 10301 10305 10309 10313 10317 10320 10323 10326 10328 10331 10334 10337 10340 10343 10345 10348 10350 10352 10353 10355 10356 10357 10358 10360 10361 10362 10362 10361
10345 10342 10339 10336 10333 10330 10326 10322 10318 10314 10311 10306 10302 10297 10292 10288 10283 10279 10276 10271 10266 10261 10258 10255 10252 10249 10246 10243 10240 10238 10237 10235 10233 10233 10233 10233 10233 10233 10234 10235 10237 10238 10240 10241 10244 10247 10250 10253 10257 10260 10263 10266 10269 10273 10277 10281 10285 10289 10292 10296 10300 10304 10308 10311 10314 10316 10319 10322 10324 10327 10330 10333 10335 10337 10339 10341 10343 10344 10346 10347 10349 10350 10350 10350 10350
10340 10338 10335 10332 10328 10325 10322 10318 10315 10311 10308 10304 10299 10294 10289 10285 10280 10276 10272 10267 10262 10257 10253 10249 10246 10243 10241 10238 10235 10232 10230 10229 10227 10226 10226 10226 10226 10226 10227 10227 10228 10230 10231 10233 10235 10237 10240 10243 10246 10249 10252 10255 10258 10263 10267 10270 10273 10277 10281 10285 10288 10292 10295 10299 10302 10305 10307 10310 10312 10315 10317 10320 10322 10324 10326 10328 10330 10332 10334 10335 10337 10338 10338 10338 10338
10336 10334 10331 10328 10325 10322 10319 10315 10312 10308 10305 10301 10297 10292 10287 10282 10277 10273 10268 10264 10259 10254 10249 10245 10241 10238 10236 10234 10231 10228 10225 10223 10222 10220 10219 10219 10219 10219 10220 10220 10221 10222 10223 10224 10226 10228 10231 10233 10236 10238 10241 10244 10248 10252 10255 10258 10261 10265 10268 10272 10275 10278 10282 10285 10289 10292 10295 10298 10300 10303 10305 10307 10309 10312 10314 10316 10317 10319 10321 10322 10324 10325 10325 10325 10326
10333 10330 10327 10324 10321 10318 10315 10312 10309 10305 10301 10298 10294 10290 10285 10279 10274 10269 10265 10260 10256 10252 10247 10242 10238 10234 10231 10229 10227 10224 10221 10218 10216 10215 10213 10212 10212 10213 10213 10213 10213 10214 10215 10216 10218 10220 10222 10224 10226 10229 10231 10234 10237 10240 10243 10246 10249 10253 10256 10259 10262 10265 10269 10272 10276 10280 10283 10286 10288 10291 10293 10295 10297 10299 10301 10303 10305 10306 10308 10309 10311 10312 10313 10314 10315
10329 10326 10324 10321 10317 10314 10311 10308 10304 10301 10297 10293 10289 10286 10282 10277 10271 10266 10261 10257 10253 10248 10244 10239 10235 10231 10227 10223 10222 10220 10217 10214 10211 10209 10208 10207 10206 10206 10206 10206 10207 10207 10208 10209 10210 10211 10213 10215 10217 10219 10221 10224 10226 10229 10232 10234 10238 10241 10244 10247 10250 10253 10257 10261 10264 10268 10271 10273 10276 10278 10281 10283 10285 10287 10288 10290 10292 10294 10295 10296 10297 10300 10302 10303 10302
10325 10323 10320 10317 10314 10311 10307 10304 10301 10298 10294 10290 10286 10282 10278 10274 10270 10265 10260 10255 10250 10245 10241 10236 10232 10228 10224 10220 10217 10215 10213 10211 10208 10205 10203 10202 10201 10200 10200 10200 10200 10200 10201 10201 10202 10203 10205 10207 10209 10210 10212 10214 10216 10219 10221 10223 10226 10230 10233 10236 10238 10242 10245 10249 10252 10255 10258 10260 10263 10265 10268 10270 10271 10273 10275 10277 10280 10282 10283 10283 10285 10287 10289 10290 10290
10321 10319 10316 10314 10311 10307 10304 10301 10298 10294 10291 10287 10284 10280 10275 10271 10267 10263 10258 10253 10247 10243 10239 10234 10230 10225 10221 10217 10214 10211 10209 10207 10205 10202 10199 10197 10196 10195 10194 10193 10194 10194 10194 10194 10195 10196 10197 10198 10200 10202 10203 10205 10207 10209 10211 10213 10216 10219 10222 10225 10227 10230 10233 10237 10240 10242 10245 10247 10250 10252 10254 10256 10258 10260 10262 10265 10267 10268 10269 10270 10271 10273 10274 10276 10277
10317 10315 10312 10310 10307 10304 10301 10297 10294 10290 10286 10283 10280 10276 10272 10268 10264 10260 10256 10251 10246 10241 10237 10232 10228 10224 10219 10215 10211 10207 10204 10203 10201 10199 10196 10193 10192 10190 10189 10188 10187 10187 10188 10188 10188 10189 10190 10191 10192 10193 10195 10196 10198 10200 10202 10204 10207 10209 10212 10214 10216 10218 10221 10224 10228 10230 10232 10234 10237 10239 10242 10244 10246 10247 10249 10251 10252 10254 10255 10257 10258 10260 10261 10262 10263
10314 10311 10308 10306 10304 10301 10298 10294 10291 10287 10283 10279 10275 10272 10268 10264 10260 10256 10252 10248 10245 10240 10235 10230 10226 10222 10217 10213 10209 10204 10201 10198 10196 10195 10193 10190 10188 10186 10185 10183 10182 10181 10181 10181 10181 10182 10183 10183 10184 10185 10187 10188 10189 10191 10193 10195 10197 10199 10201 10203 10204 10206 10209 10212 10215 10218 10219 10221 10223 10226 10229 10232 10233 10234 10236 10238 10239 10241 10242 10244 10245 10247 10248 10248 10249
10310 10308 10305 10302 10299 10297 10294 10291 10287 10284 10280 10276 10272 10268 10264 10260 10257 10252 10248 10244 10241 10237 10233 10229 10224 10220 10216 10212 10208 10203 10199 10196 10193 10191 10189 10187 10184 10182 10181 10179 10178 10176 10175 10175 10175 10175 10176 10176 10177 10178 10179 10180 10181 10182 10184 10185 10187 10189 10191 10193 10194 10196 10198 10200 10203 10205 10207 10208 10210 10213 10217 10219 10220 10221 10223 10225 10226 10227 10228 10230 10232 10234 10235 10235 10235
10306 10304 10302 10299 10296 10293 10290 10287 10283 10280 10276 10272 10268 10265 10261 10257 10253 10249 10245 10241 10238 10234 10230 10226 10222 10218 10213 10209 10206 10201 10197 10193 10190 10188 10186 10183 10181 10179 10177 10175 10173 10172 10170 10169 10169 10169 10169 10169 10170 10171 10171 10172 10173 10173 10175 10176 10178 10180 10181 10183 10184 10186 10187 10189 10191 10193 10195 10196 10198 10201 10203 10206 10207 10208 10210 10212 10213 10214 10215 10216 10218 10220 10221 10221 10222
10302 10300 10298 10296 10293 10289 10286 10283 10279 10276 10272 10269 10265 10261 10258 10255 10251 10246 10242 10238 10234 10231 10227 10223 10220 10216 10211 10206 10202 10198 10194 10190 10187 10184 10182 10180 10177 10175 10173 10171 10169 10168 10166 10165 10164 10163 10163 10163 10163 10163 10164 10164 10165 10166 10167 10168 10169 10170 10171 10173 10174 10175 10177 10179 10181 10182 10184 10185 10186 10188 10191 10193 10195 10196 10197 10199 10200 10200 10201 10202 10204 10206 10207 10208 10208
10299 10296 10294 10291 10289 10285 10282 10279 10276 10272 10268 10265 10261 10256 10253 10250 10247 10244 10240 10235 10231 10227 10223 10220 10217 10213 10209 10205 10200 10196 10192 10188 10184 10181 10178 10176 10174 10172 10170 10167 10165 10163 10162 10161 10159 10158 10158 10157 10157 10156 10157 10157 10158 10158 10159 10160 10160 10161 10162 10163 10165 10166 10167 10169 10171 10173 10174 10175 10175 10177 10179 10181 10182 10183 10185 10186 10187 10188 10188 10190 10191 10192 10193 10193 10194